Dewpoint
58 48 39 39 32 26 23 23 23 21 28 30 33 30 33 38 40 37 61 65 68 69 71 71 71 72 72 72 72 72 72 72 72 71 71 71 70 70 69 69 69 70 70 69 68 69 69 69 69
44 38 35 33 28 23 22 24 22 23 29 29 31 30 35 50 58 60 61 65 67 68 70 71 71 71 72 72 72 71 72 72 72 71 71 70 70 71 71 70 69 69 69 67 67 69 68 69 68
41 38 32 29 26 23 22 24 20 22 26 24 26 34 42 50 59 61 62 64 67 67 69 71 71 71 71 71 71 71 71 71 71 70 71 71 71 71 71 70 70 69 70 68 68 68 68 68 67
35 37 35 23 21 24 24 24 23 20 22 25 30 38 48 53 58 60 63 64 66 67 69 70 70 71 71 71 71 71 71 71 71 70 71 71 71 71 70 69 69 69 69 68 67 68 68 67 66
32 30 27 22 20 20 21 21 19 19 22 29 29 36 48 58 60 62 62 64 63 65 67 70 70 71 71 71 71 71 70 70 70 70 70 70 70 70 69 69 68 68 69 68 67 68 67 67 65
27 27 21 21 19 19 21 21 20 21 27 30 30 46 51 58 60 61 62 63 64 66 67 68 70 71 70 69 69 70 70 70 70 70 70 70 69 69 69 68 68 68 67 67 67 66 65 64 63
26 24 20 20 19 20 21 23 21 22 23 30 36 42 53 55 60 61 61 62 64 66 66 67 68 68 67 67 67 67 68 67 67 65 68 69 68 67 68 68 68 67 66 67 66 65 64 63 63
28 27 27 23 22 21 22 21 23 21 22 40 35 48 51 55 61 61 60 60 62 64 65 66 66 67 66 65 66 66 66 66 65 64 64 64 67 67 67 67 67 66 66 66 66 64 63 62 62
32 27 23 22 21 21 21 21 20 22 35 36 35 47 52 58 58 58 57 57 62 64 63 63 64 65 65 64 65 65 65 66 65 64 63 61 65 65 66 65 66 66 65 65 64 63 62 61 61
32 27 28 24 22 20 20 20 19 19 30 31 51 56 57 57 56 55 56 55 60 60 61 62 63 63 64 64 62 62 63 63 62 62 62 61 64 65 65 65 65 65 64 64 63 62 61 57 55
28 29 25 22 22 21 20 21 21 18 21 29 48 54 55 55 54 54 54 56 57 61 61 62 62 64 64 63 63 61 60 61 61 61 60 61 65 64 65 64 63 63 63 60 60 59 53 52 52
29 29 26 25 24 22 20 20 18 17 22 30 50 53 52 51 52 51 54 55 59 61 60 61 62 64 64 63 62 61 60 59 60 61 60 63 64 64 63 61 62 61 60 58 57 54 51 50 52
31 31 30 27 24 22 21 19 19 17 20 36 51 51 51 51 51 52 54 58 59 60 61 61 63 63 64 63 62 60 60 62 60 63 61 63 63 63 62 61 61 60 59 57 54 52 49 50 52
29 30 29 26 24 21 19 17 17 19 20 39 49 49 51 51 50 55 57 57 59 59 59 60 62 63 63 62 62 60 62 62 63 64 63 63 63 62 61 60 58 58 57 55 52 51 48 49 51
29 25 24 24 21 19 18 15 16 18 18 20 40 41 46 49 51 54 56 57 59 59 59 60 60 62 62 61 61 62 62 62 62 63 63 62 62 61 60 57 56 56 54 51 51 52 50 49 51
28 26 22 22 20 19 17 17 18 19 17 17 31 42 44 46 50 53 56 57 58 58 58 61 62 62 62 62 62 61 61 60 60 61 61 62 62 60 58 55 54 53 52 49 51 52 51 50 52
28 24 22 21 21 20 19 19 20 20 20 17 19 40 44 45 46 51 56 58 58 58 58 60 61 61 61 61 62 61 59 59 60 60 60 60 60 60 57 55 55 52 51 49 51 53 51 51 52
25 24 21 20 21 22 22 22 22 20 19 21 20 33 44 45 44 48 57 58 58 58 58 59 60 61 60 61 61 61 60 59 58 59 58 59 58 60 60 56 57 53 52 50 52 52 52 51 52
24 24 24 24 25 25 23 23 26 25 19 22 29 34 43 45 46 52 58 58 57 57 57 58 59 60 60 60 59 59 59 59 59 59 58 59 58 58 60 57 57 56 55 53 52 51 50 51 52
24 24 25 25 24 24 23 24 22 21 20 23 30 31 42 45 45 53 57 57 57 57 56 57 59 59 59 59 59 59 59 59 59 58 58 58 58 57 58 58 56 57 57 55 52 51 50 50 51
19 18 24 24 24 23 25 22 20 20 20 21 28 31 37 44 45 52 56 56 56 57 56 56 58 58 58 58 58 57 58 58 57 58 58 59 58 55 54 57 55 56 56 54 51 51 49 49 50
29 18 17 21 22 24 25 22 21 21 21 22 21 28 33 44 45 50 55 56 55 56 57 56 57 57 57 58 57 57 55 55 56 57 57 58 57 55 54 55 54 55 55 55 53 51 49 49 48
28 34 32 30 27 25 24 21 20 21 21 21 22 22 31 44 45 49 54 55 56 56 56 56 57 57 57 57 57 56 56 56 56 56 56 57 57 55 53 53 55 53 55 56 55 52 50 49 51
37 33 32 28 27 24 25 23 23 21 21 22 23 22 31 43 45 47 52 55 56 56 57 56 56 56 56 57 57 55 55 54 54 55 54 55 54 53 54 52 53 54 54 55 55 53 50 50 50
35 33 26 25 24 24 26 24 24 25 24 25 26 24 29 44 46 48 49 54 55 55 56 55 55 55 56 56 56 55 54 53 53 54 54 53 53 52 53 53 54 54 54 54 56 55 52 51 53
32 35 29 25 26 25 24 22 22 25 25 25 25 26 32 44 47 49 49 52 55 55 55 55 55 55 56 56 55 55 54 53 52 53 53 53 53 52 53 53 53 54 53 53 54 56 56 54 55
33 35 34 31 30 30 29 28 29 30 25 24 23 31 38 44 47 49 50 50 55 55 55 55 55 55 56 56 56 55 54 54 52 52 53 53 53 54 55 54 53 54 55 55 55 53 55 56 55
31 36 33 35 27 25 26 26 29 29 30 28 30 32 39 45 47 49 51 51 52 55 55 55 55 55 55 56 56 55 55 54 53 52 51 53 53 52 53 56 55 55 54 55 56 56 56 55 55
31 36 36 35 33 29 26 30 39 35 30 31 35 38 39 40 43 48 50 52 52 55 55 55 54 54 55 56 56 56 56 55 55 53 51 51 52 51 51 54 55 55 54 54 54 55 56 56 55
33 35 35 33 30 32 32 33 44 39 35 30 36 38 40 41 42 43 48 51 52 54 55 54 54 54 54 55 55 55 56 56 56 55 54 53 51 51 50 50 54 55 55 54 53 52 52 55 55
Lifted_Index
9 11 11 8 6 4 3 4 5 4 4 3 3 2 1 -0 -1 -1 -3 -4 -5 -5 -6 -6 -6 -6 -7 -7 -7 -7 -6 -6 -6 -6 -5 -5 -4 -4 -4 -4 -4 -5 -4 -3 -3 -2 -2 -2 -2
10 11 10 8 5 3 3 4 4 4 4 4 4 3 1 -1 -3 -3 -3 -4 -5 -5 -6 -6 -6 -6 -7 -7 -7 -7 -7 -6 -6 -6 -6 -5 -5 -5 -5 -5 -5 -5 -4 -3 -3 -2 -2 -2 -1
11 10 9 7 5 3 2 3 4 4 4 4 4 3 0 -2 -3 -4 -4 -4 -4 -5 -6 -6 -6 -6 -7 -7 -7 -7 -7 -7 -6 -6 -6 -6 -6 -6 -6 -6 -5 -5 -4 -3 -3 -2 -2 -1 -1
11 10 8 6 4 3 3 3 4 4 4 4 4 2 -0 -2 -3 -3 -3 -3 -4 -5 -5 -6 -6 -6 -6 -7 -7 -7 -7 -7 -6 -6 -6 -6 -6 -6 -6 -6 -5 -5 -4 -3 -3 -2 -2 -1 -1
11 9 8 6 4 3 3 3 4 4 4 4 3 1 -1 -2 -3 -3 -3 -3 -3 -4 -5 -5 -6 -6 -6 -6 -6 -6 -6 -7 -6 -6 -6 -6 -6 -6 -5 -5 -4 -4 -4 -3 -2 -2 -1 -0 0
10 9 7 5 3 3 3 3 4 4 4 3 2 0 -2 -3 -2 -2 -2 -3 -3 -4 -4 -4 -5 -5 -5 -5 -5 -5 -5 -6 -6 -5 -5 -5 -5 -5 -5 -4 -4 -4 -3 -2 -2 -1 0 1 1
10 9 7 5 4 3 2 3 4 3 3 2 1 -1 -2 -3 -2 -2 -2 -2 -3 -3 -4 -4 -4 -4 -4 -4 -4 -4 -4 -4 -3 -3 -3 -3 -4 -4 -4 -4 -4 -3 -2 -2 -1 0 1 2 2
9 8 7 5 4 2 2 3 3 2 1 1 1 -1 -2 -2 -2 -2 -1 -1 -2 -3 -3 -3 -3 -3 -3 -3 -3 -3 -2 -2 -2 -1 -1 -1 -2 -3 -3 -3 -3 -2 -1 -1 -0 1 2 3 2
8 7 6 5 4 2 2 3 3 2 1 1 0 -1 -2 -2 -2 -1 -1 -1 -2 -2 -3 -2 -2 -2 -3 -3 -3 -3 -2 -1 -1 -0 1 1 -0 -1 -2 -2 -2 -1 -0 0 1 2 3 3 3
7 6 5 4 4 3 2 3 3 3 2 2 0 -1 -2 -2 -1 -1 -1 -1 -2 -2 -2 -2 -2 -2 -2 -3 -2 -2 -1 -1 -0 0 1 1 1 -0 -1 -1 -1 0 1 2 2 4 4 4 4
6 5 5 4 4 3 3 3 3 4 4 3 1 -1 -2 -1 -1 -0 -0 -1 -1 -2 -1 -1 -1 -2 -2 -2 -2 -2 -1 -0 0 1 2 2 1 0 -0 -0 0 1 2 3 4 5 5 5 5
5 5 4 4 4 3 3 3 3 4 4 3 0 -1 -1 -0 -0 0 -0 -1 -1 -1 -1 -1 -1 -1 -1 -1 -1 -1 -1 0 1 1 2 2 1 1 1 1 1 2 3 4 4 5 5 5 5
4 4 3 3 3 3 3 3 3 4 4 3 0 -1 -1 -0 -0 -0 -0 -1 -2 -2 -1 -1 -1 -1 -1 -1 -0 -0 0 1 1 1 2 1 1 1 1 1 2 3 4 4 5 5 5 5 4
4 3 3 3 3 3 3 3 3 4 4 2 0 -1 -1 -0 -0 -0 -1 -1 -2 -1 -1 -1 -0 -0 -0 0 0 0 1 1 1 1 1 1 1 1 1 2 3 4 4 5 5 6 5 5 4
3 3 3 3 3 3 3 3 3 4 3 2 1 0 -0 -0 0 -0 -1 -1 -1 -1 -0 -0 -0 0 0 1 1 1 1 1 1 1 1 1 1 1 2 3 4 5 5 6 6 6 6 5 4
3 3 3 3 3 3 3 3 3 3 3 3 2 1 1 0 0 -0 -1 -1 -1 -0 0 0 0 0 0 1 1 1 1 1 1 1 1 1 1 1 2 3 5 6 7 7 7 6 5 5 4
3 3 3 3 3 3 3 3 3 3 2 2 2 2 1 1 0 -0 -1 -1 -1 -0 0 1 1 0 0 1 1 1 1 1 1 1 2 1 1 1 2 3 5 6 7 7 7 6 5 5 4
2 3 3 3 2 2 2 2 2 2 2 2 3 2 2 1 0 -0 -0 -0 -0 -0 1 1 1 1 0 1 1 0 1 1 1 2 2 2 2 2 2 3 5 6 6 6 6 6 5 5 4
3 3 2 2 2 2 2 1 1 1 2 2 3 2 2 1 -0 -0 -0 -0 -0 0 1 1 1 1 1 1 1 1 1 1 1 2 3 3 3 3 3 3 4 5 5 5 5 5 5 5 5
4 3 2 2 2 2 1 1 1 1 2 2 2 2 1 1 -0 -1 -0 -0 -0 0 1 2 2 2 1 1 1 1 1 1 2 2 3 3 3 3 3 3 4 4 5 4 4 4 5 5 5
4 3 2 2 2 1 1 1 1 2 2 2 2 2 2 1 -0 -1 -1 -1 -0 -0 1 2 2 2 2 2 2 2 1 2 2 3 3 3 3 3 3 3 3 4 4 4 4 4 5 5 5
3 3 2 2 2 1 1 1 2 2 3 2 2 2 2 1 0 -1 -1 -1 -0 -0 1 2 3 3 2 2 2 2 2 2 3 3 3 2 3 3 3 2 3 3 3 3 3 4 4 4 4
3 3 2 2 2 2 1 1 2 3 3 2 2 2 2 1 0 -1 -1 -1 -1 -0 1 2 3 3 3 3 3 3 3 3 3 3 2 2 3 3 3 3 3 3 3 3 3 3 4 4 4
3 3 2 2 2 2 2 2 2 3 2 2 2 2 2 1 0 -1 -1 -1 -1 -0 0 1 3 3 3 3 3 3 3 3 3 2 2 2 3 3 3 3 3 3 3 3 3 3 4 4 4
3 2 1 1 1 1 2 2 2 2 2 2 2 2 2 2 0 -0 -1 -1 -1 -1 -0 0 2 3 3 3 3 3 3 3 3 3 2 2 3 3 4 4 4 4 4 4 4 4 4 4 4
3 2 1 0 1 1 2 2 2 2 1 1 1 2 2 1 0 -0 -1 -1 -1 -1 -1 -0 1 2 3 3 3 3 4 3 3 3 3 3 3 4 4 4 4 4 4 4 4 4 4 4 4
2 2 2 1 1 1 1 2 1 1 1 1 1 2 1 0 -0 -1 -1 -1 -1 -1 -1 -1 0 1 2 3 3 3 3 3 3 3 3 3 4 4 4 4 4 4 4 4 4 4 4 4 4
2 2 2 1 1 0 1 1 1 1 1 1 1 1 1 -0 -1 -1 -1 -1 -1 -1 -1 -1 -1 0 1 2 3 3 3 3 3 3 3 3 3 4 4 4 4 4 4 4 4 4 3 3 3
1 1 1 1 1 0 0 0 0 1 1 1 1 1 0 -0 -1 -1 -1 -1 -1 -1 -1 -1 -1 -1 -0 0 2 2 2 2 2 2 2 2 3 3 4 4 4 4 4 4 4 3 3 3 2
1 1 1 1 1 1 0 0 1 1 1 1 0 0 0 -0 -1 -1 -1 -1 -1 -1 -1 -1 -1 -1 -1 -1 1 2 2 2 2 2 2 2 2 3 4 4 4 3 3 3 3 3 3 2 2